Latest Weather Observations for Essendon Airport

IDV60901

Issued at 9:05 am EDT Monday 24 November 2014 (issued every 10 minutes, with the page automatically refreshed every 10 minutes)

About weather observations | Map of Melbourne area stations | Latest observations for Melbourne area | Other Formats
Station Details ID: 086038 Name: ESSENDON AIRPORT Lat: -37.73 Lon: 144.91 Height: 78.4 m
Data from the previous 72 hours. | See also: Recent months at Essendon Airport
Date/Time
EDT
Tmp

°C
App
Tmp
°C
Dew
Point
°C
Rel
Hum
%
Delta-T

°C
Wind Press
QNH
hPa
Press
MSL
hPa
Rain
since
9 am
mm
Dir
 
Spd
km/h
Gust
km/h
Spd
kts
Gust
kts
24/09:00am 17.2 14.8 12.7 75 2.5 SSW 17 19 9 10 1009.4 1009.3 0.0
24/08:30am 19.9 12.3 11.7 59 4.6 WSW 43 65 23 35 1009.4 1009.3 0.0
24/08:24am 19.0 10.5 10.6 58 4.6 WSW 46 65 25 35 1009.5 1009.4 0.0
24/08:23am 21.6 15.5 10.4 49 6.1 WNW 33 61 18 33 1009.2 1009.1 0.0
24/08:10am 22.2 16.5 11.0 49 6.2 N 32 41 17 22 1006.9 1006.8 0.0
24/08:00am 20.5 19.5 12.2 59 4.7 NNE 9 20 5 11 1006.9 1006.8 0.0
24/07:30am 15.9 14.4 11.9 77 2.2 ENE 11 15 6 8 1007.0 1006.9 0.0
24/07:00am 15.5 13.3 12.1 80 1.9 ENE 15 20 8 11 1007.7 1007.6 0.0
24/06:30am 15.0 14.4 11.8 81 1.7 W 6 9 3 5 1008.4 1008.3 0.0
24/06:00am 14.8 13.5 11.4 80 1.8 NW 9 11 5 6 1008.4 1008.3 0.0
24/05:30am 13.7 12.7 11.0 84 1.4 NNE 7 11 4 6 1008.2 1008.1 0.0
24/05:00am 13.4 12.3 10.6 83 1.5 NW 7 9 4 5 1008.7 1008.6 0.0
24/04:30am 13.2 12.2 10.4 83 1.5 N 6 7 3 4 1008.5 1008.4 0.0
24/04:00am 12.9 11.3 10.3 84 1.4 N 9 9 5 5 1008.7 1008.6 0.0
24/03:30am 13.6 13.4 10.4 81 1.7 NW 2 6 1 3 1009.1 1009.0 0.0
24/03:00am 13.9 12.8 10.5 80 1.8 NW 7 9 4 5 1009.6 1009.5 0.0
24/02:30am 15.0 13.9 10.8 76 2.2 N 7 7 4 4 1010.4 1010.3 0.0
24/02:00am 15.0 15.2 10.4 74 2.4 CALM 0 0 0 0 1010.8 1010.7 0.0
24/01:30am 15.0 15.2 10.6 75 2.3 CALM 0 0 0 0 1011.0 1010.9 0.0
24/01:00am 15.5 15.7 10.5 72 2.6 CALM 0 0 0 0 1011.7 1011.6 0.0
24/12:30am 16.1 15.6 10.6 70 2.9 SW 4 7 2 4 1012.3 1012.2 0.0
24/12:00am 16.3 14.5 10.8 70 2.9 SW 11 13 6 7 1012.8 1012.7 0.0
 
Date/Time
EDT
Tmp

°C
App
Tmp
°C
Dew
Point
°C
Rel
Hum
%
Delta-T

°C
Wind Press
QNH
hPa
Press
MSL
hPa
Rain
since
9 am
mm
Dir
 
Spd
km/h
Gust
km/h
Spd
kts
Gust
kts
23/11:30pm 16.5 15.0 10.6 68 3.1 S 9 11 5 6 1012.8 1012.7 0.0
23/11:00pm 17.1 15.6 10.5 65 3.5 S 9 13 5 7 1013.4 1013.3 0.0
23/10:30pm 17.6 15.2 10.2 62 3.9 SSW 13 17 7 9 1013.8 1013.7 0.0
23/10:00pm 17.6 15.6 10.2 62 3.9 SSW 11 15 6 8 1013.5 1013.4 0.0
23/09:30pm 18.0 16.1 10.6 62 4.0 SSW 11 13 6 7 1013.1 1013.0 0.0
23/09:00pm 19.0 16.7 10.6 58 4.5 SSE 13 17 7 9 1012.8 1012.7 0.0
23/08:47pm 19.1 16.9 10.9 59 4.5 SSE 13 17 7 9 1012.5 1012.4 0.0
23/08:30pm 18.6 17.0 11.7 64 3.8 SW 11 15 6 8 1013.1 1013.0 0.0
23/08:11pm 18.4 16.6 12.2 67 3.4 WSW 13 15 7 8 1013.0 1012.9 0.0
23/08:00pm 18.6 17.3 12.4 67 3.5 SW 11 15 6 8 1012.9 1012.8 0.0
23/07:30pm 18.6 15.8 12.6 68 3.4 SSW 19 22 10 12 1012.7 1012.6 0.0
23/07:00pm 18.8 15.8 12.5 67 3.5 SW 20 26 11 14 1012.9 1012.8 0.0
23/06:30pm 19.0 15.3 12.7 67 3.5 SSW 24 30 13 16 1012.6 1012.5 0.0
23/06:00pm 20.2 16.5 12.7 62 4.2 SSW 24 30 13 16 1012.3 1012.2 0.0
23/05:30pm 21.5 18.3 11.8 54 5.4 S 20 28 11 15 1012.1 1012.0 0.0
23/05:00pm 21.8 16.8 12.1 54 5.5 S 30 37 16 20 1011.5 1011.4 0.0
23/04:30pm 23.4 18.9 13.8 54 5.6 S 30 35 16 19 1011.3 1011.2 0.0
23/04:00pm 23.0 18.5 13.8 56 5.4 S 30 39 16 21 1011.0 1010.9 0.0
23/03:30pm 23.2 18.7 13.7 55 5.6 S 30 37 16 20 1010.6 1010.5 0.0
23/03:00pm 24.3 20.8 14.4 54 5.9 S 26 35 14 19 1010.4 1010.3 0.0
23/02:30pm 23.8 20.6 14.2 55 5.7 S 24 33 13 18 1010.3 1010.2 0.0
23/02:00pm 23.5 20.9 13.7 54 5.7 S 20 26 11 14 1010.4 1010.3 0.0
23/01:30pm 22.7 20.3 13.7 56 5.2 S 19 26 10 14 1010.6 1010.5 0.0
23/01:00pm 22.8 20.5 14.6 60 4.9 S 20 28 11 15 1010.8 1010.7 0.0
23/12:30pm 22.8 21.8 14.6 60 4.9 S 13 24 7 13 1011.1 1011.0 0.0
23/12:00pm 22.5 21.1 14.4 60 4.8 SSE 15 22 8 12 1011.4 1011.3 0.0
23/11:30am 22.0 19.8 14.4 62 4.5 S 19 24 10 13 1011.5 1011.4 0.0
23/11:00am 21.1 19.9 14.0 64 4.1 SW 13 19 7 10 1011.8 1011.7 0.0
23/10:30am 20.9 19.7 14.1 65 4.0 S 13 20 7 11 1012.1 1012.0 0.0
23/10:00am 20.0 19.2 13.0 64 4.0 S 9 15 5 8 1012.4 1012.3 0.0
23/09:30am 20.1 19.4 13.3 65 3.9 SE 9 13 5 7 1012.6 1012.5 0.0
23/09:00am 18.9 18.7 12.9 68 3.4 SSW 6 11 3 6 1012.7 1012.6 0.0
23/08:30am 17.9 17.4 12.6 71 3.0 SSW 7 11 4 6 1012.6 1012.5 0.0
23/08:00am 17.2 17.6 12.5 74 2.6 WSW 2 6 1 3 1012.3 1012.2 0.0
23/07:30am 16.7 16.2 12.7 77 2.2 WSW 7 9 4 5 1012.0 1011.9 0.0
23/07:00am 16.3 15.8 12.5 78 2.1 WSW 7 9 4 5 1011.7 1011.6 0.0
23/06:30am 15.9 15.4 12.6 81 1.8 SW 7 11 4 6 1011.6 1011.5 0.0
23/06:00am 15.2 13.7 12.0 81 1.7 SW 11 13 6 7 1011.5 1011.4 0.0
23/05:30am 16.0 14.2 12.2 78 2.1 WSW 13 15 7 8 1011.4 1011.3 0.0
23/05:00am 16.4 14.7 12.4 77 2.2 WSW 13 17 7 9 1011.3 1011.2 0.0
23/04:30am 16.9 14.4 12.2 74 2.6 W 17 19 9 10 1011.4 1011.3 0.0
23/04:00am 17.0 14.9 12.3 74 2.6 WSW 15 17 8 9 1010.7 1010.6 0.0
23/03:30am 16.8 15.5 12.5 76 2.4 SW 11 13 6 7 1010.2 1010.1 0.0
23/03:00am 17.3 15.6 12.4 73 2.7 SW 13 17 7 9 1010.2 1010.1 0.0
23/02:30am 17.5 15.5 12.6 73 2.7 WSW 15 19 8 10 1009.8 1009.7 0.0
23/02:00am 17.7 16.4 12.6 72 2.9 WSW 11 15 6 8 1010.0 1009.9 0.0
23/01:30am 18.1 15.3 12.5 70 3.1 WSW 19 24 10 13 1009.8 1009.7 0.0
23/01:00am 18.5 16.5 12.7 69 3.3 WSW 15 20 8 11 1009.8 1009.7 0.0
23/12:30am 17.8 17.6 12.9 73 2.8 SSW 6 7 3 4 1009.9 1009.8 0.0
23/12:00am 17.8 17.3 12.5 71 3.0 SSW 7 9 4 5 1009.6 1009.5 0.0
 
Date/Time
EDT
Tmp

°C
App
Tmp
°C
Dew
Point
°C
Rel
Hum
%
Delta-T

°C
Wind Press
QNH
hPa
Press
MSL
hPa
Rain
since
9 am
mm
Dir
 
Spd
km/h
Gust
km/h
Spd
kts
Gust
kts
22/11:30pm 18.3 17.4 12.7 70 3.1 S 9 13 5 7 1009.3 1009.2 0.0
22/11:00pm 19.4 17.8 12.7 65 3.8 S 13 17 7 9 1009.4 1009.3 0.0
22/10:30pm 21.2 17.8 12.6 58 4.9 SSW 22 28 12 15 1009.0 1008.9 0.0
22/10:00pm 24.8 21.5 11.7 44 7.5 N 20 28 11 15 1007.6 1007.5 0.0
22/09:30pm 25.7 22.3 10.7 39 8.4 N 19 28 10 15 1007.1 1007.0 0.0
22/09:00pm 26.6 22.6 10.3 36 9.2 NNW 22 33 12 18 1006.5 1006.4 0.0
22/08:30pm 27.6 21.5 9.9 33 9.9 NNW 32 44 17 24 1006.5 1006.4 0.0
22/08:00pm 28.4 23.2 8.7 29 10.9 NNW 26 41 14 22 1005.6 1005.5 0.0
22/07:30pm 28.7 23.0 8.4 28 11.1 NNW 28 41 15 22 1005.3 1005.2 0.0
22/07:03pm 29.5 23.0 8.0 26 11.8 N 32 52 17 28 1005.2 1005.1 0.0
22/07:00pm 29.4 23.2 7.9 26 11.8 N 30 41 16 22 1005.2 1005.1 0.0
22/06:34pm 29.4 23.5 7.3 25 11.9 NNW 28 52 15 28 1005.3 1005.2 0.0
22/06:30pm 29.2 23.7 7.7 26 11.7 NNW 26 39 14 21 1005.4 1005.3 0.0
22/06:00pm 29.3 22.7 7.8 26 11.8 NNW 32 54 17 29 1005.4 1005.3 0.0
22/05:30pm 29.5 23.0 8.0 26 11.8 N 32 50 17 27 1005.4 1005.3 0.0
22/05:29pm 29.5 23.0 8.0 26 11.8 N 32 50 17 27 1005.4 1005.3 0.0
22/05:00pm 29.9 23.0 8.9 27 11.7 N 35 52 19 28 1005.3 1005.2 0.0
22/04:34pm 29.8 22.7 8.2 26 11.9 N 35 54 19 29 1005.4 1005.3 0.0
22/04:30pm 30.8 24.5 9.6 27 12.0 N 33 46 18 25 1005.5 1005.4 0.0
22/04:09pm 29.4 23.0 8.5 27 11.5 N 32 52 17 28 1005.7 1005.6 0.0
22/04:00pm 29.4 23.0 8.5 27 11.6 N 32 44 17 24 1005.9 1005.8 0.0
22/03:34pm 30.1 24.3 7.9 25 12.2 N 28 46 15 25 1006.5 1006.4 0.0
22/03:30pm 30.4 24.6 9.3 27 11.9 N 30 46 16 25 1006.5 1006.4 0.0
22/03:09pm 29.2 24.2 10.8 32 10.5 N 28 46 15 25 1007.5 1007.4 0.0
22/03:00pm 28.0 21.3 9.8 32 10.2 N 35 52 19 28 1007.7 1007.6 0.0
22/02:54pm 28.2 21.8 9.5 31 10.4 N 33 52 18 28 1007.7 1007.6 0.0
22/02:30pm 26.6 20.4 9.5 34 9.5 N 32 46 17 25 1007.6 1007.5 0.0
22/02:06pm 25.8 18.0 8.3 33 9.4 N 39 57 21 31 1007.9 1007.8 0.0
22/02:00pm 26.1 19.2 9.0 34 9.4 N 35 50 19 27 1008.1 1008.0 0.0
22/01:50pm 26.5 20.4 9.8 35 9.3 N 32 50 17 27 1008.1 1008.0 0.0
22/01:30pm 26.2 21.5 10.8 38 8.7 N 26 43 14 23 1008.2 1008.1 0.0
22/01:00pm 24.8 19.4 9.5 38 8.4 N 28 44 15 24 1008.6 1008.5 0.0
22/12:30pm 22.4 17.6 10.2 46 6.7 NNE 26 35 14 19 1009.0 1008.9 0.0
22/12:25pm 22.0 17.7 10.8 49 6.2 NNE 24 30 13 16 1009.2 1009.1 0.0
22/12:00pm 22.9 17.6 9.7 43 7.2 N 28 39 15 21 1011.4 1011.3 0.0
22/11:30am 23.2 18.9 9.2 41 7.6 N 22 32 12 17 1010.3 1010.2 0.0
22/11:00am 23.3 22.4 10.7 45 7.0 W 6 9 3 5 1010.7 1010.6 0.0
22/10:30am 21.8 21.0 12.9 57 5.1 NNE 9 11 5 6 1010.5 1010.4 0.0
22/10:00am 19.8 19.0 12.8 64 4.0 ENE 9 11 5 6 1010.6 1010.5 0.0
22/09:30am 18.1 17.4 11.9 67 3.4 ENE 7 9 4 5 1011.3 1011.2 0.0
22/09:00am 16.8 15.9 11.5 71 2.9 E 7 9 4 5 1011.0 1010.9 0.0
22/08:30am 16.2 16.7 11.6 74 2.5 CALM 0 0 0 0 1011.4 1011.3 0.0
22/08:00am 14.8 15.1 11.0 78 2.0 CALM 0 6 0 3 1011.0 1010.9 0.0
22/07:30am 14.5 13.6 10.7 78 2.0 SE 6 7 3 4 1010.8 1010.7 0.0
22/07:00am 13.6 12.8 11.1 85 1.3 E 6 7 3 4 1010.4 1010.3 0.0
22/06:30am 11.4 8.6 10.0 91 0.7 NE 15 17 8 9 1009.8 1009.7 0.0
22/06:00am 11.3 8.9 9.9 91 0.7 NE 13 15 7 8 1009.9 1009.8 0.0
22/05:30am 11.1 9.7 9.5 90 0.8 N 7 7 4 4 1010.0 1009.9 0.0
22/05:00am 11.8 10.9 10.5 92 0.7 N 6 7 3 4 1010.2 1010.1 0.0
22/04:30am 11.3 9.6 9.9 91 0.7 N 9 9 5 5 1009.9 1009.8 0.0
22/04:00am 11.1 9.4 9.7 91 0.7 N 9 9 5 5 1009.8 1009.7 0.0
22/03:30am 11.0 9.6 9.4 90 0.8 NNW 7 11 4 6 1009.9 1009.8 0.0
22/03:00am 11.8 10.1 10.0 89 0.9 NNW 9 9 5 5 1010.2 1010.1 0.0
22/02:30am 12.0 10.4 10.2 89 0.9 WNW 9 13 5 7 1010.6 1010.5 0.0
22/02:00am 12.0 10.0 10.1 88 1.0 WNW 11 13 6 7 1011.1 1011.0 0.0
22/01:30am 12.7 10.4 10.6 87 1.1 WNW 13 15 7 8 1011.4 1011.3 0.0
22/01:00am 12.4 10.8 10.1 86 1.2 WNW 9 13 5 7 1011.5 1011.4 0.0
22/12:30am 13.0 10.8 10.7 86 1.2 WNW 13 15 7 8 1012.0 1011.9 0.0
22/12:00am 13.6 11.1 11.1 85 1.3 WNW 15 17 8 9 1012.4 1012.3 0.0
 
Date/Time
EDT
Tmp

°C
App
Tmp
°C
Dew
Point
°C
Rel
Hum
%
Delta-T

°C
Wind Press
QNH
hPa
Press
MSL
hPa
Rain
since
9 am
mm
Dir
 
Spd
km/h
Gust
km/h
Spd
kts
Gust
kts
21/11:30pm 13.6 11.5 11.1 85 1.3 WNW 13 13 7 7 1012.4 1012.3 0.0
21/11:00pm 14.3 12.4 11.8 85 1.3 W 13 15 7 8 1012.7 1012.6 0.0
21/10:30pm 14.9 13.1 12.0 83 1.6 W 13 15 7 8 1012.5 1012.4 0.0
21/10:00pm 15.2 13.4 12.1 82 1.7 W 13 15 7 8 1012.3 1012.2 0.0
21/09:30pm 15.4 13.6 12.2 81 1.8 SW 13 15 7 8 1012.3 1012.2 0.0
21/09:00pm 15.8 13.3 12.2 79 2.0 SW 17 24 9 13 1012.1 1012.0 0.0
21/08:30pm 16.6 13.9 11.7 73 2.7 SSW 17 20 9 11 1012.0 1011.9 0.0
21/08:00pm 17.4 14.8 11.9 70 3.0 SSW 17 20 9 11 1011.6 1011.5 0.0
21/07:30pm 18.4 15.1 11.5 64 3.8 S 20 24 11 13 1011.2 1011.1 0.0
21/07:00pm 18.9 15.4 11.0 60 4.3 S 20 24 11 13 1010.9 1010.8 0.0
21/06:30pm 19.6 15.8 11.1 58 4.7 S 22 28 12 15 1010.5 1010.4 0.0
21/06:00pm 20.0 16.4 10.4 54 5.2 S 20 28 11 15 1010.4 1010.3 0.0
21/05:30pm 20.8 16.7 11.4 55 5.2 S 24 28 13 15 1010.3 1010.2 0.0
21/05:00pm 20.6 16.1 10.1 51 5.7 S 24 32 13 17 1010.3 1010.2 0.0
21/04:30pm 21.1 17.1 10.3 50 5.9 S 22 32 12 17 1010.5 1010.4 0.0
21/04:00pm 21.9 18.2 8.1 41 7.3 S 17 26 9 14 1010.6 1010.5 0.0
21/03:30pm 22.4 19.5 9.6 44 6.9 S 15 22 8 12 1010.7 1010.6 0.0
21/03:00pm 21.8 19.3 9.7 46 6.6 S 13 24 7 13 1010.9 1010.8 0.0
21/02:30pm 21.7 19.2 11.1 51 5.9 SE 15 22 8 12 1010.9 1010.8 0.0
21/02:00pm 20.7 17.4 9.6 49 6.0 SSW 17 26 9 14 1011.2 1011.1 0.0
21/01:30pm 20.4 18.2 9.3 49 5.9 SSW 11 26 6 14 1011.3 1011.2 0.0
21/01:00pm 21.0 17.3 9.3 47 6.3 SSW 19 30 10 16 1011.3 1011.2 0.0
21/12:30pm 20.6 17.7 9.5 49 5.9 SSE 15 20 8 11 1011.3 1011.2 0.0
21/12:00pm 19.9 16.8 8.9 49 5.8 SW 15 28 8 15 1011.5 1011.4 0.0
21/11:30am 19.1 14.3 9.0 52 5.3 WSW 24 33 13 18 1011.8 1011.7 0.0
21/11:00am 19.6 14.6 9.5 52 5.4 W 26 32 14 17 1011.7 1011.6 0.0
21/10:30am 17.9 15.1 10.0 60 4.2 W 15 26 8 14 1011.3 1011.2 0.0
21/10:00am 17.2 14.2 10.8 66 3.4 WSW 17 20 9 11 1011.1 1011.0 0.0
21/09:30am 16.4 12.9 10.9 70 3.0 WSW 20 28 11 15 1011.4 1011.3 0.0

Latest Capital City Observations: Canberra | Sydney | Melbourne | Brisbane | Adelaide | Perth | Hobart | Darwin

Other Formats:

Comma delimited format used in spreadsheet applications
http://www.bom.gov.au/fwo/IDV60901/IDV60901.95866.axf

JavaScript Object Notation format (JSON) in row-major order
http://www.bom.gov.au/fwo/IDV60901/IDV60901.95866.json